Regional Weather Roundup
Issued by NWS Sioux Falls, SD

Home | Current Version | Previous Version | Text Only | Print | Product List | Glossary Off
Versions: 1 2 3 4 5 6 7 8 9 10 11 12 13 14 15 16 17 18 19 20 21 22 23 24 25 26 27 28 29 30 31 32 33 34 35 36 37 38 39 40 41 42 43 44 45 46 47 48 49 50

000
ASUS43 KFSD 230010
RWRFSD

WEATHER ROUNDUP FOR SE SOUTH DAKOTA/SW MINNESOTA/NW IOWA
NATIONAL WEATHER SERVICE SIOUX FALLS SD
700 PM CDT SAT APR 22 2017

NOTE: "FAIR" INDICATES FEW OR NO CLOUDS BELOW 12,000 FEET WITH NO
SIGNIFICANT WEATHER AND OR OBSTRUCTIONS TO VISIBILITY.


SDZ038>040-050-052>070-230100-
SOUTHEAST SOUTH DAKOTA

CITY           SKY/WX    TMP DP  RH WIND       PRES   REMARKS
BROOKINGS      SUNNY     64  35  34 W13       30.16F
CHAMBERLAIN    NOT AVBL
HURON          SUNNY     66  33  29 SW10      30.14F
6HR MIN TEMP:  63; 6HR MAX TEMP:  69;

MADISON        FAIR      63  34  34 W9        30.17F
MITCHELL       SUNNY     66  37  34 W8        30.17F
6HR MIN TEMP:  63; 6HR MAX TEMP:  68;

SIOUX FALLS    MOSUNNY   66  37  34 SW5       30.16F
6HR MIN TEMP:  62; 6HR MAX TEMP:  69;

WINNER         FAIR      67  33  28 S9        30.16F
YANKTON        SUNNY     64  34  32 W5        30.17F
$$

MNZ071-072-080-081-089-090-097-098-230100-
SOUTHWEST MINNESOTA

CITY           SKY/WX    TMP DP  RH WIND       PRES   REMARKS
FAIRMONT       SUNNY     66  35  31 W8        30.16F
JACKSON        SUNNY     64  32  29 W6        30.16F
LUVERNE        SUNNY     64  30  27 W8        30.17F
MARSHALL       SUNNY     66  36  32 W9        30.14F
6HR MIN TEMP:  62; 6HR MAX TEMP:  68;

MONTEVIDEO     SUNNY     70  36  28 NW7       30.13S
PIPESTONE      SUNNY     64  27  24 NW5       30.16F
REDWOOD FALLS  SUNNY     68  32  26 W10       30.13F
TRACY          SUNNY     67  34  29 W5        30.15F
WINDOM         SUNNY     66  30  26 W7        30.16S
WORTHINGTON    SUNNY     64  35  34 W8        30.17F
$$

IAZ001>003-012>014-020>022-031-032-NEZ013-014-SDZ071-230100-
NORTHWEST IOWA

CITY           SKY/WX    TMP DP  RH WIND       PRES   REMARKS
CHEROKEE       SUNNY     64  35  34 CALM      30.18S
DENISON        SUNNY     64  32  29 VRB6      30.19F
ESTHERVILLE    SUNNY     65  33  30 W5        30.16F
LE MARS        SUNNY     66  32  28 CALM      30.19F
ORANGE CITY    SUNNY     64  36  34 CALM      30.18F
SHELDON        SUNNY     66  30  26 NW6       30.16F
SIOUX CITY     SUNNY     67  32  27 CALM      30.18F
6HR MIN TEMP:  62; 6HR MAX TEMP:  68;

SPENCER        SUNNY     66  35  31 NW7       30.17F
6HR MIN TEMP:  62; 6HR MAX TEMP:  68;

STORM LAKE     SUNNY     64  30  27 N7        30.18S
$$

ABBREVIATIONS USED IN REMARKS
   TC - TEMPERATURE IN CELSIUS
  WCI - WIND CHILL INDEX
   HX - HEAT INDEX
  VSB - VISIBILITY




USA.gov is the U.S. government's official web portal to all federal, state and local government web resources and services.